Weather History for KFXE - December, 2012

Change the Weather History Date:

Friday, December 28, 2012

  Actual Average (KFLL) Record (KFLL)
Temperature  
Mean Temperature 66 °F 69 °F  
Max Temperature 78 °F 77 °F 88 °F (1973)
Min Temperature 55 °F 62 °F 36 °F (2010)
Degree Days  
Heating Degree Days 0 1  
Month to date heating degree days 23  
Since 1 July heating degree days 25  
Cooling Degree Days 2 6  
Month to date cooling degree days 200  
Year to date cooling degree days 4713  
Growing Degree Days 16 (Base 50)    
Moisture  
Dew Point 63 °F    
Average Humidity 78    
Maximum Humidity 88    
Minimum Humidity 65    
Precipitation  
Precipitation 0.00 in 0.05 in 3.60 in (1949)
Month to date precipitation 2.29  
Year to date precipitation 62.01  
Snow  
Snow 0.00 in - - ()
Month to date snowfall  
Since 1 July snowfall  
Snow Depth -    
Sea Level Pressure  
Sea Level Pressure 30.03 in    
Wind  
Wind Speed 4 mph (SE)    
Max Wind Speed 13 mph    
Max Gust Speed -    
Visibility 10 miles    
Events      
T = Trace of Precipitation, MM = Missing Value Source: NWS Daily Summary

Daily Weather History Graph

Daily Weather History Graph

Search for Another Location

Airport or City:

Trip Planner

Search our weather history database for the weather conditions in past years. The results will help you decide how hot, cold, wet, or windy it might be!

Date:

Astronomy

Dec. 28, 2012 Rise Set
Actual Time 7:07 AM EST 5:38 PM EST
Civil Twilight 6:41 AM EST 6:03 PM EST
Nautical Twilight 6:13 AM EST 6:32 PM EST
Astronomical Twilight 5:44 AM EST 7:00 PM EST
Moon 6:07 PM EST (12/28) 7:04 AM EST (12/28)
Length of Visible Light 11h 21m
Length of Day
10h 30m
Full, 100% of the Moon is Illuminated
Dec 28
Full
Jan 4
Last Quarter
Jan 11
New
Jan 18
First Quarter
Jan 26
Full

Hourly Weather History & Observations

Time (EST) Temp. Dew Point Humidity Pressure Visibility Wind Dir Wind Speed Gust Speed Precip Events Conditions
12:53 AM 55.9 °F 48.0 °F 75% 30.06 in 10.0 mi Calm Calm - N/A   Clear
1:53 AM 57.0 °F 48.9 °F 74% 30.05 in 10.0 mi North 4.6 mph - N/A   Clear
2:53 AM 55.9 °F 50.0 °F 80% 30.04 in 10.0 mi Calm Calm - N/A   Partly Cloudy
3:53 AM 57.0 °F 51.1 °F 81% 30.04 in 10.0 mi Calm Calm - N/A   Scattered Clouds
4:53 AM 55.0 °F 51.1 °F 86% 30.04 in 10.0 mi Calm Calm - N/A   Scattered Clouds
5:53 AM 57.2 °F 53.6 °F 88% 30.04 in 10.0 mi Calm Calm - N/A   Scattered Clouds
6:53 AM 57.0 °F 53.1 °F 87% 30.06 in 10.0 mi Calm Calm - N/A   Partly Cloudy
7:53 AM 59.0 °F 55.0 °F 87% 30.07 in 10.0 mi Calm Calm - N/A   Scattered Clouds
8:53 AM 70.0 °F 60.1 °F 71% 30.08 in 10.0 mi Calm Calm - N/A   Scattered Clouds
9:53 AM 73.9 °F 63.0 °F 68% 30.09 in 10.0 mi East 10.4 mph - N/A   Scattered Clouds
10:53 AM 75.0 °F 64.0 °F 69% 30.09 in 10.0 mi ESE 8.1 mph - N/A   Mostly Cloudy
11:53 AM 75.9 °F 64.9 °F 69% 30.06 in 10.0 mi East 10.4 mph - N/A   Mostly Cloudy
12:53 PM 75.9 °F 66.0 °F 71% 30.03 in 10.0 mi SE 9.2 mph - N/A   Mostly Cloudy
1:53 PM 78.1 °F 66.9 °F 68% 30.01 in 10.0 mi SE 11.5 mph - N/A   Mostly Cloudy
2:27 PM 78.8 °F 66.2 °F 65% 29.98 in 10.0 mi SSE 12.7 mph - N/A   Mostly Cloudy
2:53 PM 77.0 °F 68.0 °F 74% 29.99 in 10.0 mi SE 9.2 mph - N/A   Mostly Cloudy
3:53 PM 75.9 °F 68.0 °F 76% 29.99 in 10.0 mi SE 10.4 mph - N/A   Overcast
4:13 PM 75.2 °F 69.8 °F 83% 29.98 in 10.0 mi SE 10.4 mph - N/A   Overcast
4:53 PM 75.9 °F 69.1 °F 79% 30.00 in 10.0 mi SSE 5.8 mph - N/A   Overcast
5:53 PM 75.9 °F 69.1 °F 79% 30.00 in 10.0 mi SE 5.8 mph - N/A   Mostly Cloudy
6:53 PM 75.9 °F 69.1 °F 79% 30.01 in 10.0 mi SE 9.2 mph - N/A   Mostly Cloudy
7:53 PM 75.0 °F 69.1 °F 82% 30.02 in 10.0 mi SE 8.1 mph - N/A   Mostly Cloudy
8:20 PM 75.2 °F 69.8 °F 83% 30.02 in 10.0 mi SSE 5.8 mph - N/A   Mostly Cloudy
8:53 PM 75.0 °F 69.1 °F 82% 30.03 in 10.0 mi SSE 5.8 mph - N/A   Scattered Clouds
9:53 PM 75.0 °F 70.0 °F 84% 30.02 in 10.0 mi SE 6.9 mph - N/A   Clear
10:53 PM 73.9 °F 69.1 °F 85% 30.02 in 10.0 mi SE 5.8 mph - N/A   Clear
11:53 PM 73.9 °F 70.0 °F 87% 30.01 in 10.0 mi Calm Calm - N/A   Scattered Clouds